Weather in Kalininsk

Russia / Saratov Oblast     51°29′58″N   44°29′07″E
temp.,
°C
wind,
m/s
gust,
m/s
humid.,
%
clouds,
%
prec.,
mm/h
press.,
hPa
HPBL,
m
24 january, mon
mon2401:00−7e51193100 0.5 1028352
04:00−9ene51290100 0.5 1029269
07:00−11ene61386100 0.0 1029273
10:00−10ene61488100 0.0 1030320
13:00−8e6148779 0.0 1029384
16:00−8ene6139033 0.0 1029366
19:00−12ene5119498 0.0 1030236
22:00−11e5129345 0.0 1029276
25 january, tue
tue2501:00−12ene41095100 0.0 1029210
04:00−13e41095100 0.0 1028184
07:00−14ene3896100 0.0 1028123
10:00−12e3996100 0.0 1027207
13:00−10ese4794100 0.0 1026234
16:00−8se359482 0.2 1024227
19:00−12ese229978 0.1 102430
22:00−13sse229995 0.1 102342
26 january, wed
wed2601:00−12s249789 0.1 102276
04:00−14sse229899 0.2 102130
07:00−10s2397100 0.1 102055
10:00−8s3597100 0.3 1020136
13:00−5sw3595100 0.1 1019248
16:00−5wsw359696 0.2 1020352
19:00−13wsw229978 0.1 102110
22:00−15sw22100100 0.1 102234
27 january, thu
thu2701:00−11ssw259899 0.1 1022109
04:00−15s2299100 0.1 102331
07:00−14s129883 0.1 102226
10:00−11s259788 0.3 1023102
13:00−7ssw359593 0.1 1022198
16:00−7ssw229774 0.1 102124
19:00−12s11100100 0.0 10219
22:00−7sse239790 0.1 102082
28 january, fri
fri2801:00−9s119787 0.2 102013
04:00−9sse229867 0.4 101917
07:00−12s1110095 0.1 101910
10:00−12sse229992 0.1 101930
13:00−7s359687 0.0 1018179
16:00−8sse379767 0.1 1017193
19:00−12sse39100100 0.0 1016116
22:00−9sse51295100 0.1 1014283